Location: Gradaro
(45.0833°N, 10.8833°E)
Time: 10:14:25
(UTC+00:00)

Milstar 3 Cent rocket - Pass Details

Date: 29 November 2020
Orbit: 706 x 5147 km, 28.3° (Epoch: 23 January)

Event Time Altitude Azimuth Distance (km) Brightness Sun altitude
Exits shadow 04:00:12 18° 210° (SSW) 2,572 4.4 -26.3°
Maximum altitude 04:04:08 27° 168° (SSE) 2,584 4.8 -25.6°
Drops below altitude 10° 04:13:56 10° 118° (ESE) 5,053 7.1 -23.9°
Sets 04:20:14 0° 109° (ESE) 6,907 8.3 -22.8°
